Regional Weather Roundup
Issued by NWS Charleston, WV

Home | Current Version | Previous Version | Graphics & Text | Print | Product List | Glossary On
Versions: 1 2 3 4 5 6 7 8 9 10 11 12 13 14 15 16 17 18 19 20 21 22 23 24 25 26 27 28 29 30 31 32 33 34 35 36 37 38 39 40 41 42 43 44 45 46 47 48 49 50
000
ASUS41 KRLX 100810
RWRRLX
West Virginia Regional Weather Roundup
National Weather Service Charleston WV
400 AM EDT THU JUL 10 2014

Note: "fair" indicates few or no clouds below 12,000 feet with no
significant weather and/or obstructions to visibility.

WVZ003-100900-
Northern Panhandle of West Virginia

CITY           SKY/WX    TMP DP  RH WIND       PRES   REMARKS
WHEELING       CLEAR     60  58  92 CALM      30.05S
$$

WVZ009-100900-
Northwest West Virginia

CITY           SKY/WX    TMP DP  RH WIND       PRES   REMARKS
PARKERSBURG    PTCLDY    62  60  93 CALM      30.05S
$$

WVZ006-100900-
Western West Virginia

CITY           SKY/WX    TMP DP  RH WIND       PRES   REMARKS
HUNTINGTON     CLEAR     64  62  93 CALM      30.02S
$$

WVZ015-100900-
West Central West Virginia

CITY           SKY/WX    TMP DP  RH WIND       PRES   REMARKS
CHARLESTON     MOCLDY    67  67 100 CALM      30.02S FOG
$$

WVZ031-100900-
North Central West Virginia

CITY           SKY/WX    TMP DP  RH WIND       PRES   REMARKS
CLARKSBURG     CLEAR     60  58  92 N5        30.04S FOG
MORGANTOWN     CLEAR     63  59  87 CALM      30.06S
$$

WVZ035-042-045-100900-
South Central West Virginia

CITY           SKY/WX    TMP DP  RH WIND       PRES   REMARKS
BECKLEY        FOG       61  59  93 CALM      30.10F VSB 1/2
BLUEFIELD      MOCLDY    66  61  84 SW5       30.13S
LEWISBURG      PTCLDY    62  59  92 NE3       30.10S FOG
$$

WVZ047-100900-
Northern Mountains of West Virginia

CITY           SKY/WX    TMP DP  RH WIND       PRES   REMARKS
ELKINS         MOCLDY    58  56  93 CALM      30.10S FOG
$$

WVZ052-100900-
Eastern Panhandle of West Virginia

CITY           SKY/WX    TMP DP  RH WIND       PRES   REMARKS
MARTINSBURG    PTCLDY    66  63  90 CALM      30.01S FOG
PETERSBURG     CLEAR     60  57  88 CALM      30.05S FOG
$$


USA.gov is the U.S. government's official web portal to all federal, state and local government web resources and services.